Year,Month,Day,Hour,Minute,Value (Times are PST for temperature in C)
2015,07,01,00,00,18.60
2015,07,01,00,01,18.60
2015,07,01,00,02,18.60
2015,07,01,00,03,18.60
2015,07,01,00,04,18.60
2015,07,01,00,05,18.60
2015,07,01,00,06,18.60
2015,07,01,00,07,18.60
2015,07,01,00,08,18.60
2015,07,01,00,09,18.60
2015,07,01,00,10,18.60
2015,07,01,00,11,18.60
2015,07,01,00,12,18.60
2015,07,01,00,13,18.60
2015,07,01,00,14,18.50
2015,07,01,00,15,18.50
2015,07,01,00,16,18.50
2015,07,01,00,17,18.50
2015,07,01,00,18,18.50
2015,07,01,00,19,18.50
2015,07,01,00,20,18.50
2015,07,01,00,21,18.50
2015,07,01,00,22,18.50
2015,07,01,00,23,18.50
2015,07,01,00,24,18.50
2015,07,01,00,25,18.50
2015,07,01,00,26,18.60
2015,07,01,00,27,18.60
2015,07,01,00,28,18.60
2015,07,01,00,29,18.60
2015,07,01,00,30,18.60
2015,07,01,00,31,18.60
2015,07,01,00,32,18.60
2015,07,01,00,33,18.70
2015,07,01,00,34,18.70
2015,07,01,00,35,18.60
2015,07,01,00,36,18.60
2015,07,01,00,37,18.60
2015,07,01,00,38,18.60
2015,07,01,00,39,18.60
2015,07,01,00,40,18.60
2015,07,01,00,41,18.60
2015,07,01,00,42,18.50
2015,07,01,00,43,18.50
2015,07,01,00,44,18.40
2015,07,01,00,45,18.40
2015,07,01,00,46,18.30
2015,07,01,00,47,18.30
2015,07,01,00,48,18.30
2015,07,01,00,49,18.30
2015,07,01,00,50,18.30
2015,07,01,00,51,18.30
2015,07,01,00,52,18.30
2015,07,01,00,53,17.90
2015,07,01,00,54,17.80
2015,07,01,00,55,17.70
2015,07,01,00,56,17.70
2015,07,01,00,57,17.60
2015,07,01,00,58,17.60
2015,07,01,00,59,17.50
2015,07,01,01,00,17.50
2015,07,01,01,01,17.50
2015,07,01,01,02,17.40
2015,07,01,01,03,17.40
2015,07,01,01,04,17.40
2015,07,01,01,05,17.30
2015,07,01,01,06,17.30
2015,07,01,01,07,17.30
2015,07,01,01,08,17.30
2015,07,01,01,09,17.30
2015,07,01,01,10,17.20
2015,07,01,01,11,17.20
2015,07,01,01,12,17.20
2015,07,01,01,13,17.20
2015,07,01,01,14,17.10
2015,07,01,01,15,17.10
2015,07,01,01,16,17.10
2015,07,01,01,17,17.10
2015,07,01,01,18,17.10
2015,07,01,01,19,17.00
2015,07,01,01,20,17.00
2015,07,01,01,21,17.00
2015,07,01,01,22,17.00
2015,07,01,01,23,16.90
2015,07,01,01,24,16.90
2015,07,01,01,25,16.80
2015,07,01,01,26,16.70
2015,07,01,01,27,16.70
2015,07,01,01,28,16.60
2015,07,01,01,29,16.60
2015,07,01,01,30,16.40
2015,07,01,01,31,16.40
2015,07,01,01,32,16.30
2015,07,01,01,33,16.30
2015,07,01,01,34,16.20
2015,07,01,01,35,16.20
2015,07,01,01,36,16.20
2015,07,01,01,37,16.10
2015,07,01,01,38,16.10
2015,07,01,01,39,16.10
2015,07,01,01,40,16.10
2015,07,01,01,41,15.90
2015,07,01,01,42,15.90
2015,07,01,01,43,15.90
2015,07,01,01,44,15.80
2015,07,01,01,45,15.80
2015,07,01,01,46,15.80
2015,07,01,01,47,15.80
2015,07,01,01,48,15.80
2015,07,01,01,49,15.80
2015,07,01,01,50,15.80
2015,07,01,01,51,15.80
2015,07,01,01,52,15.70
2015,07,01,01,53,15.70
2015,07,01,01,54,15.70
2015,07,01,01,55,15.70
2015,07,01,01,56,15.70
2015,07,01,01,57,15.70
2015,07,01,01,58,15.70
2015,07,01,01,59,15.70
2015,07,01,02,00,15.70
2015,07,01,02,01,15.70
2015,07,01,02,02,15.70
2015,07,01,02,03,15.70
2015,07,01,02,04,15.70
2015,07,01,02,05,15.70
2015,07,01,02,06,15.70
2015,07,01,02,07,15.70
2015,07,01,02,08,15.70
2015,07,01,02,09,15.70
2015,07,01,02,10,15.70
2015,07,01,02,11,15.70
2015,07,01,02,12,15.70
2015,07,01,02,13,15.70
2015,07,01,02,14,15.70
2015,07,01,02,15,15.70
2015,07,01,02,16,15.70
2015,07,01,02,17,15.70
2015,07,01,02,18,15.70
2015,07,01,02,19,15.70
2015,07,01,02,20,15.70
2015,07,01,02,21,15.70
2015,07,01,02,22,15.70
2015,07,01,02,23,15.70
2015,07,01,02,24,15.70
2015,07,01,02,25,15.60
2015,07,01,02,26,15.60
2015,07,01,02,27,15.60
2015,07,01,02,28,15.60
2015,07,01,02,29,15.60
2015,07,01,02,30,15.60
2015,07,01,02,31,15.60
2015,07,01,02,32,15.60
2015,07,01,02,33,15.70
2015,07,01,02,34,15.70
2015,07,01,02,35,15.70
2015,07,01,02,36,15.70
2015,07,01,02,37,15.60
2015,07,01,02,38,15.60
2015,07,01,02,39,15.60
2015,07,01,02,40,15.60
2015,07,01,02,41,15.60
2015,07,01,02,42,15.60
2015,07,01,02,43,15.60
2015,07,01,02,44,15.60
2015,07,01,02,45,15.60
2015,07,01,02,46,15.60
2015,07,01,02,47,15.70
2015,07,01,02,48,15.70
2015,07,01,02,49,15.70
2015,07,01,02,50,15.70
2015,07,01,02,51,15.70
2015,07,01,02,52,15.80
2015,07,01,02,53,15.80
2015,07,01,02,54,15.80
2015,07,01,02,55,15.80
2015,07,01,02,56,15.80
2015,07,01,02,57,15.80
2015,07,01,02,58,15.80
2015,07,01,02,59,15.80
2015,07,01,03,00,15.80
2015,07,01,03,01,15.80
2015,07,01,03,02,15.80
2015,07,01,03,03,15.80
2015,07,01,03,04,15.80
2015,07,01,03,05,15.80
2015,07,01,03,06,15.80
2015,07,01,03,07,15.80
2015,07,01,03,08,15.80
2015,07,01,03,09,15.80
2015,07,01,03,10,15.80
2015,07,01,03,11,15.80
2015,07,01,03,12,15.80
2015,07,01,03,13,15.80
2015,07,01,03,14,15.80
2015,07,01,03,15,15.90
2015,07,01,03,16,15.90
2015,07,01,03,17,15.80
2015,07,01,03,18,15.80
2015,07,01,03,19,15.80
2015,07,01,03,20,15.80
2015,07,01,03,21,15.80
2015,07,01,03,22,15.80
2015,07,01,03,23,15.80
2015,07,01,03,24,15.80
2015,07,01,03,25,15.80
2015,07,01,03,26,15.80
2015,07,01,03,27,15.80
2015,07,01,03,28,15.80
2015,07,01,03,29,15.80
2015,07,01,03,30,15.80
2015,07,01,03,31,15.80
2015,07,01,03,32,15.80
2015,07,01,03,33,15.80
2015,07,01,03,34,15.80
2015,07,01,03,35,15.70
2015,07,01,03,36,15.70
2015,07,01,03,37,15.70
2015,07,01,03,38,15.70
2015,07,01,03,39,15.70
2015,07,01,03,40,15.70
2015,07,01,03,41,15.70
2015,07,01,03,42,15.70
2015,07,01,03,43,15.70
2015,07,01,03,44,15.70
2015,07,01,03,45,15.70
2015,07,01,03,46,15.70
2015,07,01,03,47,15.70
2015,07,01,03,48,15.70
2015,07,01,03,49,15.70
2015,07,01,03,50,15.70
2015,07,01,03,51,15.70
2015,07,01,03,52,15.70
2015,07,01,03,53,15.70
2015,07,01,03,54,15.70
2015,07,01,03,55,15.70
2015,07,01,03,56,15.70
2015,07,01,03,57,15.70
2015,07,01,03,58,15.70
2015,07,01,03,59,15.70
2015,07,01,04,00,15.60
2015,07,01,04,01,15.60
2015,07,01,04,02,15.60
2015,07,01,04,03,15.60
2015,07,01,04,04,15.60
2015,07,01,04,05,15.60
2015,07,01,04,06,15.60
2015,07,01,04,07,15.60
2015,07,01,04,08,15.60
2015,07,01,04,09,15.60
2015,07,01,04,10,15.60
2015,07,01,04,11,15.60
2015,07,01,04,12,15.60
2015,07,01,04,13,15.60
2015,07,01,04,14,15.60
2015,07,01,04,15,15.60
2015,07,01,04,16,15.60
2015,07,01,04,17,15.60
2015,07,01,04,18,15.60
2015,07,01,04,19,15.60
2015,07,01,04,20,15.60
2015,07,01,04,21,15.60
2015,07,01,04,22,15.60
2015,07,01,04,23,15.60
2015,07,01,04,24,15.60
2015,07,01,04,25,15.60
2015,07,01,04,26,15.60
2015,07,01,04,27,15.60
2015,07,01,04,28,15.60
2015,07,01,04,29,15.60
2015,07,01,04,30,15.60
2015,07,01,04,31,15.60
2015,07,01,04,32,15.60
2015,07,01,04,33,15.50
2015,07,01,04,34,15.50
2015,07,01,04,35,15.50
2015,07,01,04,36,15.50
2015,07,01,04,37,15.50
2015,07,01,04,38,15.50
2015,07,01,04,39,15.50
2015,07,01,04,40,15.50
2015,07,01,04,41,15.50
2015,07,01,04,42,15.50
2015,07,01,04,43,15.50
2015,07,01,04,44,15.50
2015,07,01,04,45,15.50
2015,07,01,04,46,15.50
2015,07,01,04,47,15.50
2015,07,01,04,48,15.50
2015,07,01,04,49,15.50
2015,07,01,04,50,15.50
2015,07,01,04,51,15.50
2015,07,01,04,52,15.50
2015,07,01,04,53,15.50
2015,07,01,04,54,15.50
2015,07,01,04,55,15.50
2015,07,01,04,56,15.50
2015,07,01,04,57,15.50
2015,07,01,04,58,15.50
2015,07,01,04,59,15.60
2015,07,01,05,00,15.60
2015,07,01,05,01,15.60
2015,07,01,05,02,15.60
2015,07,01,05,03,15.60
2015,07,01,05,04,15.60
2015,07,01,05,05,15.50
2015,07,01,05,06,15.50
2015,07,01,05,07,15.50
2015,07,01,05,08,15.50
2015,07,01,05,09,15.50
2015,07,01,05,10,15.40
2015,07,01,05,11,15.40
2015,07,01,05,12,15.40
2015,07,01,05,13,15.40
2015,07,01,05,14,15.40
2015,07,01,05,15,15.40
2015,07,01,05,16,15.40
2015,07,01,05,17,15.40
2015,07,01,05,18,15.30
2015,07,01,05,19,15.30
2015,07,01,05,20,15.30
2015,07,01,05,21,15.30
2015,07,01,05,22,15.30
2015,07,01,05,23,15.30
2015,07,01,05,24,15.30
2015,07,01,05,25,15.30
2015,07,01,05,26,15.30
2015,07,01,05,27,15.30
2015,07,01,05,28,15.30
2015,07,01,05,29,15.30
2015,07,01,05,30,15.30
2015,07,01,05,31,15.30
2015,07,01,05,32,15.30
2015,07,01,05,33,15.30
2015,07,01,05,34,15.40
2015,07,01,05,35,15.40
2015,07,01,05,36,15.40
2015,07,01,05,37,15.50
2015,07,01,05,38,15.50
2015,07,01,05,39,15.50
2015,07,01,05,40,15.50
2015,07,01,05,41,15.60
2015,07,01,05,42,15.60
2015,07,01,05,43,15.60
2015,07,01,05,44,15.60
2015,07,01,05,45,15.60
2015,07,01,05,46,15.60
2015,07,01,05,47,15.70
2015,07,01,05,48,15.70
2015,07,01,05,49,15.70
2015,07,01,05,50,15.70
2015,07,01,05,51,15.80
2015,07,01,05,52,15.80
2015,07,01,05,53,15.80
2015,07,01,05,54,15.80
2015,07,01,05,55,15.90
2015,07,01,05,56,16.00
2015,07,01,05,57,16.10
2015,07,01,05,58,16.10
2015,07,01,05,59,16.20
2015,07,01,06,00,16.20
2015,07,01,06,01,16.30
2015,07,01,06,02,16.30
2015,07,01,06,03,16.40
2015,07,01,06,04,16.40
2015,07,01,06,05,16.40
2015,07,01,06,06,16.40
2015,07,01,06,07,16.40
2015,07,01,06,08,16.50
2015,07,01,06,09,16.60
2015,07,01,06,10,16.70
2015,07,01,06,11,16.70
2015,07,01,06,12,16.70
2015,07,01,06,13,16.70
2015,07,01,06,14,16.80
2015,07,01,06,15,16.80
2015,07,01,06,16,16.90
2015,07,01,06,17,16.90
2015,07,01,06,18,17.00
2015,07,01,06,19,17.00
2015,07,01,06,20,17.10
2015,07,01,06,21,17.20
2015,07,01,06,22,17.30
2015,07,01,06,23,17.30
2015,07,01,06,24,17.40
2015,07,01,06,25,17.40
2015,07,01,06,26,17.50
2015,07,01,06,27,17.50
2015,07,01,06,28,17.60
2015,07,01,06,29,17.60
2015,07,01,06,30,17.70
2015,07,01,06,31,17.80
2015,07,01,06,32,17.90
2015,07,01,06,33,17.90
2015,07,01,06,34,18.00
2015,07,01,06,35,18.10
2015,07,01,06,36,18.20
2015,07,01,06,37,18.20
2015,07,01,06,38,18.20
2015,07,01,06,39,18.20
2015,07,01,06,40,18.20
2015,07,01,06,41,18.20
2015,07,01,06,42,18.30
2015,07,01,06,43,18.30
2015,07,01,06,44,18.30
2015,07,01,06,45,18.30
2015,07,01,06,46,18.30
2015,07,01,06,47,18.30
2015,07,01,06,48,18.30
2015,07,01,06,49,18.30
2015,07,01,06,50,18.30
2015,07,01,06,51,18.30
2015,07,01,06,52,18.40
2015,07,01,06,53,18.40
2015,07,01,06,54,18.50
2015,07,01,06,55,18.50
2015,07,01,06,56,18.40
2015,07,01,06,57,18.30
2015,07,01,06,58,18.30
2015,07,01,06,59,18.30
2015,07,01,07,00,18.30
2015,07,01,07,01,18.30
2015,07,01,07,02,18.30
2015,07,01,07,03,18.40
2015,07,01,07,04,18.40
2015,07,01,07,05,18.40
2015,07,01,07,06,18.50
2015,07,01,07,07,18.50
2015,07,01,07,08,18.60
2015,07,01,07,09,18.60
2015,07,01,07,10,18.60
2015,07,01,07,11,18.60
2015,07,01,07,12,18.60
2015,07,01,07,13,18.60
2015,07,01,07,14,18.70
2015,07,01,07,15,18.70
2015,07,01,07,16,18.80
2015,07,01,07,17,18.80
2015,07,01,07,18,18.90
2015,07,01,07,19,18.90
2015,07,01,07,20,19.00
2015,07,01,07,21,19.10
2015,07,01,07,22,19.10
2015,07,01,07,23,19.10
2015,07,01,07,24,19.10
2015,07,01,07,25,19.20
2015,07,01,07,26,19.20
2015,07,01,07,27,19.30
2015,07,01,07,28,19.40
2015,07,01,07,29,19.40
2015,07,01,07,30,19.50
2015,07,01,07,31,19.60
2015,07,01,07,32,19.60
2015,07,01,07,33,19.70
2015,07,01,07,34,19.70
2015,07,01,07,35,19.80
2015,07,01,07,36,19.80
2015,07,01,07,37,19.90
2015,07,01,07,38,19.90
2015,07,01,07,39,19.90
2015,07,01,07,40,20.00
2015,07,01,07,41,20.10
2015,07,01,07,42,20.10
2015,07,01,07,43,20.10
2015,07,01,07,44,20.10
2015,07,01,07,45,20.10
2015,07,01,07,46,20.10
2015,07,01,07,47,20.10
2015,07,01,07,48,20.10
2015,07,01,07,49,19.90
2015,07,01,07,50,20.10
2015,07,01,07,51,20.10
2015,07,01,07,52,20.10
2015,07,01,07,53,20.10
2015,07,01,07,54,20.10
2015,07,01,07,55,20.20
2015,07,01,07,56,20.20
2015,07,01,07,57,20.20
2015,07,01,07,58,20.20
2015,07,01,07,59,20.20
2015,07,01,08,00,20.20
2015,07,01,08,01,20.30
2015,07,01,08,02,20.30
2015,07,01,08,03,20.30
2015,07,01,08,04,20.40
2015,07,01,08,05,20.40
2015,07,01,08,06,20.50
2015,07,01,08,07,20.60
2015,07,01,08,08,20.70
2015,07,01,08,09,20.70
2015,07,01,08,10,20.70
2015,07,01,08,11,20.80
2015,07,01,08,12,20.80
2015,07,01,08,13,20.90
2015,07,01,08,14,20.90
2015,07,01,08,15,20.90
2015,07,01,08,16,21.00
2015,07,01,08,17,21.00
2015,07,01,08,18,21.10
2015,07,01,08,19,21.10
2015,07,01,08,20,21.10
2015,07,01,08,21,21.10
2015,07,01,08,22,21.20
2015,07,01,08,23,21.20
2015,07,01,08,24,21.30
2015,07,01,08,25,21.30
2015,07,01,08,26,21.40
2015,07,01,08,27,21.50
2015,07,01,08,28,21.60
2015,07,01,08,29,21.60
2015,07,01,08,30,21.60
2015,07,01,08,31,21.60
2015,07,01,08,32,21.60
2015,07,01,08,33,21.40
2015,07,01,08,34,21.40
2015,07,01,08,35,21.30
2015,07,01,08,36,21.30
2015,07,01,08,37,21.30
2015,07,01,08,38,21.30
2015,07,01,08,39,21.30
2015,07,01,08,40,21.30
2015,07,01,08,41,21.20
2015,07,01,08,42,21.00
2015,07,01,08,43,20.90
2015,07,01,08,44,20.70
2015,07,01,08,45,20.50
2015,07,01,08,46,20.40
2015,07,01,08,47,20.30
2015,07,01,08,48,20.30
2015,07,01,08,49,20.20
2015,07,01,08,50,20.30
2015,07,01,08,51,20.20
2015,07,01,08,52,20.20
2015,07,01,08,53,20.10
2015,07,01,08,54,20.10
2015,07,01,08,55,20.20
2015,07,01,08,56,20.20
2015,07,01,08,57,20.20
2015,07,01,08,58,20.10
2015,07,01,08,59,19.90
2015,07,01,09,00,19.70
2015,07,01,09,01,19.60
2015,07,01,09,02,19.30
2015,07,01,09,03,19.10
2015,07,01,09,04,18.90
2015,07,01,09,05,18.70
2015,07,01,09,06,18.60
2015,07,01,09,07,18.50
2015,07,01,09,08,18.30
2015,07,01,09,09,18.20
2015,07,01,09,10,18.30
2015,07,01,09,11,18.50
2015,07,01,09,12,18.50
2015,07,01,09,13,18.60
2015,07,01,09,14,18.70
2015,07,01,09,15,18.80
2015,07,01,09,16,18.90
2015,07,01,09,17,18.90
2015,07,01,09,18,19.00
2015,07,01,09,19,19.10
2015,07,01,09,20,19.10
2015,07,01,09,21,19.10
2015,07,01,09,22,19.10
2015,07,01,09,23,19.10
2015,07,01,09,24,19.10
2015,07,01,09,25,19.10
2015,07,01,09,26,19.10
2015,07,01,09,27,19.10
2015,07,01,09,28,19.20
2015,07,01,09,29,19.30
2015,07,01,09,30,19.40
2015,07,01,09,31,19.50
2015,07,01,09,32,19.60
2015,07,01,09,33,19.70
2015,07,01,09,34,19.80
2015,07,01,09,35,19.90
2015,07,01,09,36,20.00
2015,07,01,09,37,20.10
2015,07,01,09,38,20.10
2015,07,01,09,39,20.10
2015,07,01,09,40,20.20
2015,07,01,09,41,20.20
2015,07,01,09,42,20.20
2015,07,01,09,43,20.40
2015,07,01,09,44,20.50
2015,07,01,09,45,20.60
2015,07,01,09,46,20.70
2015,07,01,09,47,20.70
2015,07,01,09,48,20.80
2015,07,01,09,49,20.80
2015,07,01,09,50,20.80
2015,07,01,09,51,20.80
2015,07,01,09,52,20.80
2015,07,01,09,53,20.80
2015,07,01,09,54,20.90
2015,07,01,09,55,21.00
2015,07,01,09,56,21.20
2015,07,01,09,57,21.30
2015,07,01,09,58,21.50
2015,07,01,09,59,21.80
2015,07,01,10,00,21.90
2015,07,01,10,01,22.00
2015,07,01,10,02,21.90
2015,07,01,10,03,21.70
2015,07,01,10,04,21.80
2015,07,01,10,05,21.80
2015,07,01,10,06,21.90
2015,07,01,10,07,21.90
2015,07,01,10,08,21.80
2015,07,01,10,09,21.90
2015,07,01,10,10,21.90
2015,07,01,10,11,21.90
2015,07,01,10,12,21.80
2015,07,01,10,13,21.90
2015,07,01,10,14,21.90
2015,07,01,10,15,22.00
2015,07,01,10,16,22.00
2015,07,01,10,17,22.10
2015,07,01,10,18,22.00
2015,07,01,10,19,21.90
2015,07,01,10,20,21.90
2015,07,01,10,21,21.70
2015,07,01,10,22,21.60
2015,07,01,10,23,21.50
2015,07,01,10,24,21.40
2015,07,01,10,25,21.30
2015,07,01,10,26,21.30
2015,07,01,10,27,21.30
2015,07,01,10,28,21.30
2015,07,01,10,29,21.30
2015,07,01,10,30,21.20
2015,07,01,10,31,21.00
2015,07,01,10,32,20.90
2015,07,01,10,33,20.60
2015,07,01,10,34,20.40
2015,07,01,10,35,20.20
2015,07,01,10,36,20.10
2015,07,01,10,37,20.10
2015,07,01,10,38,20.00
2015,07,01,10,39,19.90
2015,07,01,10,40,19.80
2015,07,01,10,41,19.70
2015,07,01,10,42,19.80
2015,07,01,10,43,19.80
2015,07,01,10,44,19.90
2015,07,01,10,45,19.80
2015,07,01,10,46,19.80
2015,07,01,10,47,19.90
2015,07,01,10,48,20.00
2015,07,01,10,49,20.20
2015,07,01,10,50,20.20
2015,07,01,10,51,20.10
2015,07,01,10,52,20.10
2015,07,01,10,53,20.00
2015,07,01,10,54,20.10
2015,07,01,10,55,20.20
2015,07,01,10,56,20.40
2015,07,01,10,57,20.50
2015,07,01,10,58,20.50
2015,07,01,10,59,20.60
2015,07,01,11,00,20.60
2015,07,01,11,01,20.50
2015,07,01,11,02,20.60
2015,07,01,11,03,20.60
2015,07,01,11,04,20.70
2015,07,01,11,05,20.70
2015,07,01,11,06,20.70
2015,07,01,11,07,20.80
2015,07,01,11,08,20.90
2015,07,01,11,09,21.00
2015,07,01,11,10,21.10
2015,07,01,11,11,21.20
2015,07,01,11,12,21.20
2015,07,01,11,13,21.30
2015,07,01,11,14,21.30
2015,07,01,11,15,21.30
2015,07,01,11,16,21.20
2015,07,01,11,17,21.20
2015,07,01,11,18,21.20
2015,07,01,11,19,21.30
2015,07,01,11,20,21.30
2015,07,01,11,21,21.40
2015,07,01,11,22,21.50
2015,07,01,11,23,21.60
2015,07,01,11,24,21.70
2015,07,01,11,25,21.70
2015,07,01,11,26,21.80
2015,07,01,11,27,22.00
2015,07,01,11,28,22.10
2015,07,01,11,29,22.20
2015,07,01,11,30,22.40
2015,07,01,11,31,22.60
2015,07,01,11,32,22.70
2015,07,01,11,33,22.80
2015,07,01,11,34,22.90
2015,07,01,11,35,22.90
2015,07,01,11,36,22.90
2015,07,01,11,37,22.90
2015,07,01,11,38,22.90
2015,07,01,11,39,22.90
2015,07,01,11,40,22.90
2015,07,01,11,41,22.90
2015,07,01,11,42,22.90
2015,07,01,11,43,22.90
2015,07,01,11,44,22.90
2015,07,01,11,45,22.90
2015,07,01,11,46,22.90
2015,07,01,11,47,22.90
2015,07,01,11,48,22.90
2015,07,01,11,49,22.80
2015,07,01,11,50,22.60
2015,07,01,11,51,22.60
2015,07,01,11,52,22.50
2015,07,01,11,53,22.30
2015,07,01,11,54,22.30
2015,07,01,11,55,22.20
2015,07,01,11,56,22.10
2015,07,01,11,57,22.10
2015,07,01,11,58,22.10
2015,07,01,11,59,22.00
2015,07,01,12,00,22.00
2015,07,01,12,01,22.10
2015,07,01,12,02,22.10
2015,07,01,12,03,22.10
2015,07,01,12,04,22.20
2015,07,01,12,05,22.30
2015,07,01,12,06,22.30
2015,07,01,12,07,22.30
2015,07,01,12,08,22.40
2015,07,01,12,09,22.40
2015,07,01,12,10,22.50
2015,07,01,12,11,22.60
2015,07,01,12,12,22.70
2015,07,01,12,13,22.90
2015,07,01,12,14,22.90
2015,07,01,12,15,23.00
2015,07,01,12,16,23.10
2015,07,01,12,17,23.00
2015,07,01,12,18,22.90
2015,07,01,12,19,23.00
2015,07,01,12,20,23.10
2015,07,01,12,21,23.30
2015,07,01,12,22,23.40
2015,07,01,12,23,23.60
2015,07,01,12,24,23.60
2015,07,01,12,25,23.70
2015,07,01,12,26,23.60
2015,07,01,12,27,23.60
2015,07,01,12,28,23.60
2015,07,01,12,29,23.70
2015,07,01,12,30,23.80
2015,07,01,12,31,23.90
2015,07,01,12,32,23.90
2015,07,01,12,33,23.90
2015,07,01,12,34,23.90
2015,07,01,12,35,23.90
2015,07,01,12,36,23.90
2015,07,01,12,37,24.00
2015,07,01,12,38,24.10
2015,07,01,12,39,24.30
2015,07,01,12,40,24.50
2015,07,01,12,41,24.70
2015,07,01,12,42,24.90
2015,07,01,12,43,25.00
2015,07,01,12,44,25.10
2015,07,01,12,45,25.20
2015,07,01,12,46,25.20
2015,07,01,12,47,25.20
2015,07,01,12,48,25.30
2015,07,01,12,49,25.30
2015,07,01,12,50,25.40
2015,07,01,12,51,25.40
2015,07,01,12,52,25.20
2015,07,01,12,53,25.10
2015,07,01,12,54,25.10
2015,07,01,12,55,25.00
2015,07,01,12,56,25.00
2015,07,01,12,57,24.90
2015,07,01,12,58,24.90
2015,07,01,12,59,24.70
2015,07,01,13,00,24.70
2015,07,01,13,01,24.60
2015,07,01,13,02,24.50
2015,07,01,13,03,24.40
2015,07,01,13,04,24.30
2015,07,01,13,05,24.30
2015,07,01,13,06,24.30
2015,07,01,13,07,24.20
2015,07,01,13,08,24.10
2015,07,01,13,09,24.10
2015,07,01,13,10,24.20
2015,07,01,13,11,24.20
2015,07,01,13,12,24.30
2015,07,01,13,13,24.40
2015,07,01,13,14,24.40
2015,07,01,13,15,24.40
2015,07,01,13,16,24.40
2015,07,01,13,17,24.30
2015,07,01,13,18,24.30
2015,07,01,13,19,24.30
2015,07,01,13,20,24.20
2015,07,01,13,21,24.10
2015,07,01,13,22,24.10
2015,07,01,13,23,24.10
2015,07,01,13,24,24.00
2015,07,01,13,25,24.10
2015,07,01,13,26,24.10
2015,07,01,13,27,24.10
2015,07,01,13,28,24.20
2015,07,01,13,29,24.20
2015,07,01,13,30,24.20
2015,07,01,13,31,24.10
2015,07,01,13,32,24.10
2015,07,01,13,33,24.10
2015,07,01,13,34,24.10
2015,07,01,13,35,24.10
2015,07,01,13,36,24.10
2015,07,01,13,37,24.30
2015,07,01,13,38,24.30
2015,07,01,13,39,24.30
2015,07,01,13,40,24.40
2015,07,01,13,41,24.50
2015,07,01,13,42,24.50
2015,07,01,13,43,24.50
2015,07,01,13,44,24.40
2015,07,01,13,45,24.20
2015,07,01,13,46,24.10
2015,07,01,13,47,24.10
2015,07,01,13,48,24.10
2015,07,01,13,49,24.10
2015,07,01,13,50,24.10
2015,07,01,13,51,24.10
2015,07,01,13,52,24.10
2015,07,01,13,53,24.30
2015,07,01,13,54,24.50
2015,07,01,13,55,24.60
2015,07,01,13,56,24.60
2015,07,01,13,57,24.60
2015,07,01,13,58,24.50
2015,07,01,13,59,24.40
2015,07,01,14,00,24.40
2015,07,01,14,01,24.40
2015,07,01,14,02,24.30
2015,07,01,14,03,24.30
2015,07,01,14,04,24.30
2015,07,01,14,05,24.40
2015,07,01,14,06,24.50
2015,07,01,14,07,24.70
2015,07,01,14,08,24.90
2015,07,01,14,09,25.20
2015,07,01,14,10,25.50
2015,07,01,14,11,25.80
2015,07,01,14,12,25.90
2015,07,01,14,13,25.90
2015,07,01,14,14,25.80
2015,07,01,14,15,25.50
2015,07,01,14,16,25.40
2015,07,01,14,17,25.40
2015,07,01,14,18,25.50
2015,07,01,14,19,25.50
2015,07,01,14,20,25.40
2015,07,01,14,21,25.40
2015,07,01,14,22,25.40
2015,07,01,14,23,25.50
2015,07,01,14,24,25.60
2015,07,01,14,25,25.80
2015,07,01,14,26,26.00
2015,07,01,14,27,26.10
2015,07,01,14,28,26.20
2015,07,01,14,29,26.20
2015,07,01,14,30,26.30
2015,07,01,14,31,26.30
2015,07,01,14,32,26.20
2015,07,01,14,33,26.20
2015,07,01,14,34,26.30
2015,07,01,14,35,26.40
2015,07,01,14,36,26.60
2015,07,01,14,37,26.70
2015,07,01,14,38,26.80
2015,07,01,14,39,26.90
2015,07,01,14,40,26.90
2015,07,01,14,41,27.10
2015,07,01,14,42,27.10
2015,07,01,14,43,27.10
2015,07,01,14,44,27.20
2015,07,01,14,45,27.20
2015,07,01,14,46,27.10
2015,07,01,14,47,27.00
2015,07,01,14,48,26.80
2015,07,01,14,49,26.60
2015,07,01,14,50,26.50
2015,07,01,14,51,26.30
2015,07,01,14,52,26.20
2015,07,01,14,53,26.10
2015,07,01,14,54,26.10
2015,07,01,14,55,26.20
2015,07,01,14,56,26.20
2015,07,01,14,57,26.10
2015,07,01,14,58,26.00
2015,07,01,14,59,26.10
2015,07,01,15,00,26.10
2015,07,01,15,01,26.10
2015,07,01,15,02,25.90
2015,07,01,15,03,25.70
2015,07,01,15,04,25.50
2015,07,01,15,05,25.50
2015,07,01,15,06,25.50
2015,07,01,15,07,25.60
2015,07,01,15,08,25.80
2015,07,01,15,09,25.90
2015,07,01,15,10,26.10
2015,07,01,15,11,26.10
2015,07,01,15,12,26.00
2015,07,01,15,13,25.90
2015,07,01,15,14,25.80
2015,07,01,15,15,25.80
2015,07,01,15,16,25.80
2015,07,01,15,17,25.80
2015,07,01,15,18,25.90
2015,07,01,15,19,25.90
2015,07,01,15,20,25.90
2015,07,01,15,21,25.80
2015,07,01,15,22,25.80
2015,07,01,15,23,25.70
2015,07,01,15,24,25.60
2015,07,01,15,25,25.60
2015,07,01,15,26,25.70
2015,07,01,15,27,25.70
2015,07,01,15,28,25.70
2015,07,01,15,29,25.70
2015,07,01,15,30,25.60
2015,07,01,15,31,25.40
2015,07,01,15,32,25.20
2015,07,01,15,33,25.00
2015,07,01,15,34,24.90
2015,07,01,15,35,24.80
2015,07,01,15,36,24.80
2015,07,01,15,37,24.70
2015,07,01,15,38,24.70
2015,07,01,15,39,24.80
2015,07,01,15,40,24.90
2015,07,01,15,41,24.90
2015,07,01,15,42,25.00
2015,07,01,15,43,25.10
2015,07,01,15,44,25.20
2015,07,01,15,45,25.30
2015,07,01,15,46,25.40
2015,07,01,15,47,25.50
2015,07,01,15,48,25.50
2015,07,01,15,49,25.50
2015,07,01,15,50,25.50
2015,07,01,15,51,25.50
2015,07,01,15,52,25.30
2015,07,01,15,53,25.20
2015,07,01,15,54,25.20
2015,07,01,15,55,25.40
2015,07,01,15,56,25.40
2015,07,01,15,57,25.60
2015,07,01,15,58,25.70
2015,07,01,15,59,25.80
2015,07,01,16,00,25.90
2015,07,01,16,01,25.90
2015,07,01,16,02,26.00
2015,07,01,16,03,26.00
2015,07,01,16,04,26.00
2015,07,01,16,05,25.80
2015,07,01,16,06,25.50
2015,07,01,16,07,25.40
2015,07,01,16,08,25.30
2015,07,01,16,09,25.20
2015,07,01,16,10,25.20
2015,07,01,16,11,25.40
2015,07,01,16,12,25.40
2015,07,01,16,13,25.60
2015,07,01,16,14,25.70
2015,07,01,16,15,25.70
2015,07,01,16,16,25.90
2015,07,01,16,17,25.90
2015,07,01,16,18,25.90
2015,07,01,16,19,25.90
2015,07,01,16,20,26.00
2015,07,01,16,21,26.10
2015,07,01,16,22,26.30
2015,07,01,16,23,26.40
2015,07,01,16,24,26.50
2015,07,01,16,25,26.60
2015,07,01,16,26,26.60
2015,07,01,16,27,26.60
2015,07,01,16,28,26.40
2015,07,01,16,29,26.30
2015,07,01,16,30,26.30
2015,07,01,16,31,26.30
2015,07,01,16,32,26.20
2015,07,01,16,33,26.30
2015,07,01,16,34,26.30
2015,07,01,16,35,26.20
2015,07,01,16,36,26.20
2015,07,01,16,37,26.20
2015,07,01,16,38,26.40
2015,07,01,16,39,26.50
2015,07,01,16,40,26.60
2015,07,01,16,41,26.60
2015,07,01,16,42,26.60
2015,07,01,16,43,26.60
2015,07,01,16,44,26.70
2015,07,01,16,45,26.70
2015,07,01,16,46,26.80
2015,07,01,16,47,26.80
2015,07,01,16,48,26.80
2015,07,01,16,49,26.80
2015,07,01,16,50,26.80
2015,07,01,16,51,26.80
2015,07,01,16,52,26.80
2015,07,01,16,53,26.70
2015,07,01,16,54,26.70
2015,07,01,16,55,26.60
2015,07,01,16,56,26.50
2015,07,01,16,57,26.40
2015,07,01,16,58,26.30
2015,07,01,16,59,26.30
2015,07,01,17,00,26.30
2015,07,01,17,01,26.40
2015,07,01,17,02,26.50
2015,07,01,17,03,26.60
2015,07,01,17,04,26.60
2015,07,01,17,05,26.40
2015,07,01,17,06,26.30
2015,07,01,17,07,26.20
2015,07,01,17,08,26.30
2015,07,01,17,09,26.40
2015,07,01,17,10,26.40
2015,07,01,17,11,26.50
2015,07,01,17,12,26.60
2015,07,01,17,13,26.70
2015,07,01,17,14,26.70
2015,07,01,17,15,26.90
2015,07,01,17,16,26.90
2015,07,01,17,17,26.80
2015,07,01,17,18,26.80
2015,07,01,17,19,26.60